Погода в Миандоабе

Иран     36°57′52″N   46°05′36″E
В апреле 2022 года жителям России запретили посещать сайт meteo.paraplan.net по решению Генеральной прокуратуры. Аудитория сайта уменьшилась в 10 раз. Владельцы сайта не видят смысла в поддержке погодного сервера в таких условиях. Сайт будет закрыт в октябре.
темп.,
°C
ветер,
м/с
пор.,
м/с
влажн.,
%
обл.,
%
осадки,
мм/ч
давл.,
гПа
погр.,
м
30 сентября, пт
пт3000:30+20ююв12150 0.0 101113
03:30+18ю11170 0.0 101211
06:30+17ююв11190 0.0 101411
09:30+24зсз11140 0.0 1014453
12:30+28зсз44150 0.0 10131514
15:30+29сз43130 0.0 10111065
18:30+23зсз33200 0.0 101323
21:30+20сз11270 0.0 101411
1 октября, сб
сб100:30+19ссз12310 0.0 101518
03:30+17сз23460 0.0 101650
06:30+16ссз22520 0.0 101731
09:30+22ссв45270 0.0 1017973
12:30+27ссз55210 0.0 10141780
15:30+26сз76260 0.0 10131165
18:30+21зсз36390 0.0 1014117
21:30+20всв611310 0.0 1015322
2 октября, вс
вс200:30+18всв410300 0.0 1015239
03:30+16св48330 0.0 1016193
06:30+15ссв24370 0.0 101773
09:30+21св46250 0.0 10161000
12:30+26св56180 0.0 10121754
15:30+25ссз66230 0.0 10101079
18:30+20зсз35350 0.0 101193
21:30+18зсз22410 0.0 101121
3 октября, пн
пн300:30+17ююв01420 0.0 101011
03:30+16вюв22420 0.0 101011
06:30+15юв22425 0.0 101111
09:30+22юв34261 0.0 1010600
12:30+28юз15158 0.0 10072300
15:30+30юз761024 0.0 10053286
18:30+24ююз510165 0.0 1008202
21:30+21ю47205 0.0 1010101
4 октября, вт
вт400:30+19юв46245 0.0 101279
03:30+18ююв45265 0.0 101269
06:30+17юв45271 0.0 101459
09:30+25ю58160 0.0 10141421
12:30+29юз89120 0.0 10123137
15:30+29ююз88110 0.0 10123106
18:30+24юз47180 0.0 1015137
21:30+21ююз11230 0.0 101613